星链-17741 (STARLINK-17741)

导读 | 豆包AI

STARLINK-11741是美国星链计划中的低轨互联网通信卫星,于2025年5月21日发射升空,隶属于SpaceX公司的星链星座组网。星链项目旨在为全球提供全天候、低时延的高速卫星互联网接入服务,该卫星入轨后将补充星链星座的覆盖容量,进一步完善全球网络覆盖布局,推进星链星座的服务能力建设。

基本信息
目录编号:
64064
目录名称:
STARLINK-11741
国际标识:
2025-107A
轨道中心:
EARTH
卫星名称:
星链-17741
卫星全名:
星链-17741 (STARLINK-17741)
卫星状态:
在轨 (已飞行344 天)
发射日期:
2025-05-21 UTC
国别 :
美国 (US)
星等 :
--
轨道信息
数据来源 国际轨道数据
星历时间: 2026-04-29T21:35:46+0800
13小时前
查看轨道信息
半长轴: 6734.432km
偏心率: 0.0001144
轨道倾角: 43.001°
近地点辐角 273.905°
升交点赤经 152.103°
平近点角 86.168°
近地点: 355.524km
远地点: 357.066km
周期: 91.667分钟
每日圈数: 15.709101
详细信息
固有亮度:
5
最大亮度:
2.5
卫星平台:
Starlink V1.0
覆盖范围:
全球
运营商:
太空探索技术公司
运营商所在国:
美国
制造商(研发单位):
太空探索技术公司
制造商所在国:
美国
使用方式:
暂无
卫星简介
Starlink 计划是 SpaceX 推出的全球卫星互联网项目,通过发射低轨道卫星,为全球尤其是偏远地区提供高速、低延迟的互联网服务。自 2019 年起,Starlink 已部署数千颗卫星,旨在缩小全球数字鸿沟,推动互联网普及。该项目还为军事、航空等行业提供通信支持,带来广泛经济效益。
2D轨道图
3D轨道图
轨道高度分析图
轨道倾角分析图
轨道综合分析图
查看轨道综合分析图